SPJOT EPKK-EPKK

Flight info

Callsign SPJOT
Flight time 0h 13m
Altitude 2000
Route EPKK/25 DCT
Aircraft DA40/L-SBDGRY/S

Departure

Time 2026-05-05 11:30
Airport Kraków John Paul II International Airport (EPKK)

Arrival

Time 2026-05-05 11:43
Airport Kraków John Paul II International Airport (EPKK)
Time Latitude Longitude Altitude Speed Heading
2026-05-05 11:20 50.07685 19.80010 785 ft 0 kts 347°
2026-05-05 11:24 50.07712 19.80000 784 ft 2 kts 352°
2026-05-05 11:24 50.07726 19.80002 784 ft 2 kts 26°
2026-05-05 11:25 50.07740 19.80046 784 ft 10 kts 81°
2026-05-05 11:25 50.07755 19.80175 784 ft 13 kts 78°
2026-05-05 11:25 50.07774 19.80310 785 ft 6 kts 73°
2026-05-05 11:25 50.07786 19.80339 785 ft 4 kts 40°
2026-05-05 11:26 50.07811 19.80348 785 ft 6 kts 351°
2026-05-05 11:26 50.07848 19.80334 785 ft 0 kts 346°
2026-05-05 11:27 50.07882 19.80323 785 ft 16 kts 349°
2026-05-05 11:28 50.08003 19.80261 784 ft 9 kts 310°
2026-05-05 11:28 50.08015 19.80215 784 ft 6 kts 263°
2026-05-05 11:28 50.08003 19.80127 784 ft 8 kts 257°
2026-05-05 11:28 50.08002 19.80123 784 ft 0 kts 258°
2026-05-05 11:29 50.07981 19.79962 784 ft 43 kts 258°
2026-05-05 11:29 50.07882 19.79279 824 ft 80 kts 256°
2026-05-05 11:29 50.07736 19.78363 999 ft 92 kts 255°
2026-05-05 11:29 50.07579 19.77282 1115 ft 108 kts 257°
2026-05-05 11:30 50.07503 19.76148 1420 ft 102 kts 285°
2026-05-05 11:30 50.08020 19.75422 1646 ft 110 kts 339°
2026-05-05 11:30 50.08778 19.75061 1841 ft 115 kts 346°
2026-05-05 11:30 50.09562 19.74930 2084 ft 113 kts
2026-05-05 11:31 50.10128 19.75708 2268 ft 118 kts 73°
2026-05-05 11:31 50.10264 19.77024 2402 ft 126 kts 83°
2026-05-05 11:31 50.10321 19.78463 2296 ft 144 kts 88°
2026-05-05 11:31 50.10343 19.79940 2013 ft 129 kts 91°
2026-05-05 11:32 50.10294 19.81299 1805 ft 122 kts 95°
2026-05-05 11:32 50.10192 19.82574 1667 ft 116 kts 99°
2026-05-05 11:32 50.10057 19.83817 1509 ft 113 kts 101°
2026-05-05 11:32 50.09884 19.84983 1460 ft 109 kts 111°
2026-05-05 11:33 50.09352 19.85658 1423 ft 104 kts 179°
2026-05-05 11:33 50.08713 19.85302 1412 ft 98 kts 233°
2026-05-05 11:33 50.08549 19.84261 1328 ft 102 kts 263°
2026-05-05 11:33 50.08432 19.83221 1242 ft 89 kts 256°
2026-05-05 11:34 50.08296 19.82344 1143 ft 81 kts 258°
2026-05-05 11:34 50.08180 19.81433 1014 ft 94 kts 259°
2026-05-05 11:34 50.08037 19.80430 894 ft 86 kts 258°
2026-05-05 11:34 50.07925 19.79583 790 ft 74 kts 258°
2026-05-05 11:35 50.07818 19.78795 808 ft 86 kts 257°
2026-05-05 11:35 50.07650 19.77796 940 ft 102 kts 255°
2026-05-05 11:35 50.07544 19.76737 1258 ft 93 kts 282°
2026-05-05 11:35 50.08056 19.76232 1498 ft 100 kts 351°
2026-05-05 11:36 50.08760 19.76187 1707 ft 107 kts
2026-05-05 11:36 50.09392 19.76689 1957 ft 109 kts 67°
2026-05-05 11:36 50.09417 19.77961 1996 ft 126 kts 92°
2026-05-05 11:36 50.09346 19.79357 2108 ft 131 kts 97°
2026-05-05 11:37 50.09215 19.80766 2252 ft 129 kts 98°
2026-05-05 11:37 50.09161 19.82184 2356 ft 133 kts 92°
2026-05-05 11:37 50.09124 19.83644 2379 ft 141 kts 92°
2026-05-05 11:37 50.09065 19.85151 2169 ft 131 kts 95°
2026-05-05 11:38 50.08995 19.86467 2035 ft 113 kts 92°
2026-05-05 11:38 50.09287 19.87497 1866 ft 111 kts 28°
2026-05-05 11:38 50.10027 19.87736 1706 ft 105 kts
2026-05-05 11:38 50.10725 19.87875 1566 ft 99 kts
2026-05-05 11:39 50.11367 19.88168 1564 ft 95 kts 42°
2026-05-05 11:39 50.11290 19.89031 1646 ft 100 kts 165°
2026-05-05 11:39 50.10985 19.88342 1649 ft 107 kts 299°
2026-05-05 11:39 50.11665 19.87940 1653 ft 115 kts 17°
2026-05-05 11:40 50.11963 19.88931 1751 ft 123 kts 118°
2026-05-05 11:40 50.11219 19.89071 1859 ft 124 kts 209°
2026-05-05 11:40 50.10455 19.88344 1834 ft 136 kts 214°
2026-05-05 11:40 50.09788 19.87497 1805 ft 112 kts 227°
2026-05-05 11:41 50.09303 19.86589 1620 ft 110 kts 234°
2026-05-05 11:41 50.08894 19.85571 1478 ft 122 kts 243°
2026-05-05 11:41 50.08592 19.84297 1415 ft 120 kts 255°
2026-05-05 11:41 50.08416 19.83154 1297 ft 99 kts 259°
2026-05-05 11:42 50.08291 19.82157 1155 ft 86 kts 259°
2026-05-05 11:42 50.08171 19.81265 994 ft 83 kts 258°
2026-05-05 11:42 50.08053 19.80407 855 ft 79 kts 257°
2026-05-05 11:42 50.07933 19.79601 789 ft 67 kts 258°
2026-05-05 11:43 50.07850 19.79120 785 ft 26 kts 226°
2026-05-05 11:43 50.07780 19.79078 785 ft 0 kts 172°
2026-05-05 11:43 50.07768 19.79084 785 ft 4 kts 165°
2026-05-05 11:43 50.07693 19.79108 785 ft 16 kts 168°
2026-05-05 11:44 50.07617 19.79158 784 ft 2 kts 118°
2026-05-05 11:44 50.07625 19.79242 784 ft 13 kts 79°
2026-05-05 11:44 50.07647 19.79393 784 ft 16 kts 77°
2026-05-05 11:44 50.07672 19.79572 784 ft 18 kts 77°
2026-05-05 11:45 50.07700 19.79774 784 ft 20 kts 76°
2026-05-05 11:45 50.07702 19.79861 784 ft 6 kts 118°
2026-05-05 11:45 50.07668 19.79892 784 ft 8 kts 167°
2026-05-05 11:45 50.07623 19.79909 784 ft 4 kts 146°
2026-05-05 11:46 50.07617 19.80014 784 ft 1 kts 72°
2026-05-05 11:46 50.07662 19.80017 784 ft 9 kts 349°
2026-05-05 11:46 50.07684 19.80010 784 ft 0 kts 350°